Location: Poznań
(52.4062°N, 16.9234°E)
Time: 06:16:59
(UTC+01:00)

ISS - Pass Details

Date: 02 February 2019
Orbit: 403 x 411 km, 51.6° (Epoch: 17 February)

Event Time Altitude Azimuth Distance (km) Brightness Sun altitude
Rises 18:04:29 0° 272° (W) 2,336 1.8 -13.0°
Reaches altitude 10° 18:06:34 10° 271° (W) 1,476 0.4 -13.3°
Maximum altitude 18:09:53 77° 187° (S) 426 -3.8 -13.8°
Enters shadow 18:11:34 26° 103° (ESE) 839 -2.8 -14.0°
